, TX

(GMT )
Ingleside

Weather History for KTFP - November, 2012

Change the Weather History Date:

Thursday, November 29, 2012

  Actual Average Record
Temperature  
Mean Temperature 65 °F -  
Max Temperature 76 °F - - ()
Min Temperature 54 °F - - ()
Growing Degree Days 15 (Base 50)    
Moisture  
Dew Point 60 °F    
Average Humidity 82    
Maximum Humidity 94    
Minimum Humidity 61    
Precipitation  
Precipitation 0.00 in - - ()
Sea Level Pressure  
Sea Level Pressure 30.18 in    
Wind  
Wind Speed 7 mph (ENE)    
Max Wind Speed 12 mph    
Max Gust Speed -    
Visibility 10 miles    
Events      
Averages and records for this station are not official NWS values.
T = Trace of Precipitation, MM = Missing Value Source: NWS Daily Summary

Daily Weather History Graph

Daily Weather History Graph

Search for Another Location

Airport or City:

Trip Planner

Search our weather history database for the weather conditions in past years. The results will help you decide how hot, cold, wet, or windy it might be!

Date:

Astronomy

Nov. 29, 2012 Rise Set
Actual Time 7:01 AM CST 5:33 PM CST
Civil Twilight 6:36 AM CST 5:58 PM CST
Nautical Twilight 6:07 AM CST 6:27 PM CST
Astronomical Twilight 5:38 AM CST 6:55 PM CST
Moon 6:37 PM CST (11/29) 7:48 AM CST (11/29)
Length of Visible Light 11h 22m
Length of Day
10h 31m
Full, 99% of the Moon is Illuminated
Nov 29
Full
Dec 6
Last Quarter
Dec 13
New
Dec 19
First Quarter
Dec 28
Full

Hourly Weather History & Observations

Time (CST) Temp. Dew Point Humidity Pressure Visibility Wind Dir Wind Speed Gust Speed Precip Events Conditions
12:15 AM 56.8 °F 53.1 °F 87% 30.27 in 10.0 mi NE 6.9 mph - N/A   Mostly Cloudy
12:35 AM 57.2 °F 53.4 °F 87% 30.26 in 10.0 mi NNE 6.9 mph - N/A   Scattered Clouds
12:55 AM 57.2 °F 53.6 °F 88% 30.26 in 10.0 mi NE 8.1 mph - N/A   Clear
1:15 AM 57.6 °F 53.8 °F 87% 30.24 in 10.0 mi NE 6.9 mph - N/A   Clear
1:35 AM 57.4 °F 53.8 °F 88% 30.24 in 10.0 mi NE 6.9 mph - N/A   Clear
1:55 AM 56.5 °F 53.6 °F 90% 30.24 in 10.0 mi North - - N/A   Clear
2:15 AM 56.1 °F 53.2 °F 90% 30.24 in 10.0 mi NE 3.5 mph - N/A   Clear
2:35 AM 56.3 °F 53.2 °F 89% 30.23 in 10.0 mi NE 8.1 mph - N/A   Clear
2:55 AM 55.8 °F 52.9 °F 90% 30.22 in 10.0 mi NE 6.9 mph - N/A   Clear
3:15 AM 55.6 °F 53.1 °F 91% 30.22 in 10.0 mi NE 6.9 mph - N/A   Clear
3:35 AM 55.2 °F 52.7 °F 91% 30.22 in 10.0 mi NE 6.9 mph - N/A   Clear
3:55 AM 54.7 °F 52.5 °F 92% 30.22 in 7.0 mi NNE 5.8 mph - N/A   Clear
4:15 AM 54.1 °F 52.2 °F 93% 30.22 in 7.0 mi NNE 5.8 mph - N/A   Clear
4:35 AM 54.1 °F 52.3 °F 94% 30.21 in 10.0 mi NNE 5.8 mph - N/A   Clear
4:55 AM 55.0 °F 53.1 °F 93% 30.21 in 10.0 mi NNE 6.9 mph - N/A   Clear
5:15 AM 55.6 °F 53.6 °F 93% 30.21 in 10.0 mi NNE 6.9 mph - N/A   Clear
5:35 AM 56.1 °F 54.0 °F 92% 30.21 in 10.0 mi NE 8.1 mph - N/A   Clear
5:55 AM 56.1 °F 53.8 °F 92% 30.20 in 10.0 mi NE 6.9 mph - N/A   Clear
6:15 AM 55.4 °F 53.2 °F 92% 30.20 in 10.0 mi NE 5.8 mph - N/A   Clear
6:35 AM 54.7 °F 52.7 °F 93% 30.21 in 10.0 mi NE 5.8 mph - N/A   Clear
6:55 AM 54.5 °F 52.7 °F 94% 30.21 in 7.0 mi NE 5.8 mph - N/A   Clear
7:15 AM 54.7 °F 52.9 °F 94% 30.21 in 5.0 mi NE 5.8 mph - N/A   Clear
7:35 AM 55.8 °F 54.0 °F 94% 30.21 in 7.0 mi NE 4.6 mph - N/A   Clear
7:55 AM 56.8 °F 55.0 °F 94% 30.22 in 7.0 mi NE 4.6 mph - N/A   Clear
8:15 AM 58.5 °F 56.5 °F 93% 30.22 in 7.0 mi NE 4.6 mph - N/A   Clear
8:35 AM 61.2 °F 58.6 °F 91% 30.23 in 10.0 mi NE 6.9 mph - N/A   Clear
8:55 AM 64.0 °F 60.1 °F 87% 30.23 in 10.0 mi NE 8.1 mph - N/A   Clear
9:15 AM 66.0 °F 61.2 °F 84% 30.23 in 10.0 mi NE 6.9 mph - N/A   Clear
9:35 AM 67.3 °F 61.9 °F 83% 30.24 in 10.0 mi NE 9.2 mph - N/A   Clear
9:55 AM 69.3 °F 62.4 °F 79% 30.23 in 10.0 mi ENE 11.5 mph - N/A   Clear
10:15 AM 69.4 °F 62.2 °F 78% 30.23 in 10.0 mi ENE 11.5 mph - N/A   Clear
10:35 AM 69.6 °F 62.4 °F 78% 30.23 in 10.0 mi ENE 10.4 mph - N/A   Clear
10:55 AM 70.0 °F 62.6 °F 77% 30.23 in 10.0 mi ENE 10.4 mph - N/A   Clear
11:15 AM 71.1 °F 62.8 °F 75% 30.22 in 10.0 mi East 10.4 mph - N/A   Clear
11:35 AM 71.8 °F 63.3 °F 75% 30.22 in 10.0 mi ENE 8.1 mph - N/A   Clear
11:55 AM 73.0 °F 63.1 °F 71% 30.20 in 10.0 mi ENE 9.2 mph - N/A   Clear
12:15 PM 73.9 °F 63.1 °F 69% 30.20 in 10.0 mi ENE 8.1 mph - N/A   Mostly Cloudy
12:35 PM 74.8 °F 63.1 °F 67% 30.19 in 10.0 mi East 9.2 mph - N/A   Overcast
12:55 PM 73.6 °F 63.0 °F 69% 30.18 in 10.0 mi East 6.9 mph - N/A   Overcast
1:15 PM 73.8 °F 63.1 °F 69% 30.17 in 10.0 mi East 6.9 mph - N/A   Overcast
1:35 PM 74.3 °F 63.1 °F 68% 30.16 in 10.0 mi ENE 6.9 mph - N/A   Overcast
1:55 PM 74.7 °F 63.3 °F 68% 30.15 in 10.0 mi ENE 6.9 mph - N/A   Overcast
2:15 PM 75.2 °F 63.0 °F 66% 30.14 in 10.0 mi East 6.9 mph - N/A   Overcast
2:35 PM 75.2 °F 62.8 °F 65% 30.13 in 10.0 mi East 4.6 mph - N/A   Scattered Clouds
2:55 PM 75.7 °F 62.8 °F 64% 30.12 in 10.0 mi ESE 6.9 mph - N/A   Clear
3:15 PM 76.5 °F 62.2 °F 61% 30.12 in 10.0 mi ESE 8.1 mph - N/A   Clear
3:35 PM 76.5 °F 62.4 °F 62% 30.11 in 10.0 mi ESE 8.1 mph - N/A   Clear
3:55 PM 75.9 °F 62.4 °F 63% 30.12 in 10.0 mi ESE 5.8 mph - N/A   Clear
4:15 PM 75.6 °F 62.6 °F 64% 30.12 in 10.0 mi ESE 5.8 mph - N/A   Clear
4:35 PM 75.0 °F 62.2 °F 64% 30.12 in 10.0 mi ESE 3.5 mph - N/A   Clear
4:55 PM 74.3 °F 62.6 °F 67% 30.12 in 10.0 mi East 4.6 mph - N/A   Clear
5:15 PM 72.7 °F 62.6 °F 71% 30.13 in 10.0 mi East 3.5 mph - N/A   Mostly Cloudy
5:35 PM 72.3 °F 62.6 °F 71% 30.13 in 10.0 mi ENE 4.6 mph - N/A   Overcast
5:55 PM 72.0 °F 62.6 °F 72% 30.12 in 10.0 mi ENE 3.5 mph - N/A   Overcast
6:15 PM 70.7 °F 62.6 °F 75% 30.12 in 10.0 mi East 5.8 mph - N/A   Mostly Cloudy
6:35 PM 68.5 °F 61.9 °F 79% 30.12 in 10.0 mi East 5.8 mph - N/A   Scattered Clouds
6:55 PM 67.8 °F 61.9 °F 81% 30.12 in 10.0 mi East 5.8 mph - N/A   Clear
7:15 PM 67.6 °F 62.6 °F 84% 30.12 in 10.0 mi North - - N/A   Clear
7:35 PM 66.7 °F 63.1 °F 88% 30.13 in 10.0 mi ENE 8.1 mph - N/A   Scattered Clouds
7:55 PM 67.3 °F 64.0 °F 89% 30.13 in 10.0 mi NE 3.5 mph - N/A   Overcast
8:15 PM 67.6 °F 64.4 °F 89% 30.15 in 10.0 mi ENE 3.5 mph - N/A   Overcast
8:35 PM 68.0 °F 64.4 °F 88% 30.15 in 10.0 mi North - - N/A   Overcast
8:55 PM 68.0 °F 64.4 °F 88% 30.15 in 10.0 mi North - - N/A   Overcast
9:15 PM 68.0 °F 64.4 °F 88% 30.15 in 10.0 mi North - - N/A   Overcast
9:35 PM 67.1 °F 63.9 °F 89% 30.15 in 10.0 mi Calm Calm - N/A   Overcast
9:55 PM 67.1 °F 64.0 °F 90% 30.15 in 10.0 mi NNE 3.5 mph - N/A   Overcast
10:15 PM 67.1 °F 64.4 °F 91% 30.15 in 10.0 mi NNE 4.6 mph - N/A   Mostly Cloudy
10:35 PM 67.1 °F 64.4 °F 91% 30.15 in 10.0 mi NNE 3.5 mph - N/A   Overcast
10:55 PM 67.1 °F 64.4 °F 91% 30.15 in 10.0 mi NNE 5.8 mph - N/A   Mostly Cloudy
11:15 PM 67.1 °F 64.6 °F 92% 30.14 in 10.0 mi NE 4.6 mph - N/A   Mostly Cloudy
11:35 PM 66.6 °F 64.0 °F 92% 30.14 in 10.0 mi NE 5.8 mph - N/A   Mostly Cloudy
11:55 PM 66.2 °F 63.9 °F 92% 30.14 in 10.0 mi NE 3.5 mph - N/A   Mostly Cloudy